#timestamp,LO_Frequency,Hit,StdDev 
1631361615.2,286046980.3,N
1631361635.1,286046978.7,N
1631361636.0,286046978.7,N
1631361655.8,286046975.8,Y
1631361675.6,286046997.3,P
1631361695.5,286046999.2,N
1631361715.3,286046999.1,N
1631361735.1,286046997.2,N
1631361755.9,286046994.9,N
1631361775.7,286046998.0,N
1631361795.6,286046994.3,N
1631361815.4,286046989.5,N
1631361835.2,286046988.6,N
1631361855.1,286046991.7,N
1631361856.0,286046991.7,N
1631361875.8,286046986.7,N
1631361895.7,286046983.4,Y
1631361915.5,286046986.3,P
1631361935.3,286046986.8,P
1631361955.2,286046983.1,P
1631361975.9,286046981.1,Y
1631361995.7,286046992.6,P
1631362015.6,286046993.0,N
1631362035.4,286046993.1,N
1631362055.3,286046990.7,Y
1631362075.1,286046999.8,P
1631362076.0,286046999.8,N
1631362095.8,286047002.7,N
1631362115.7,286047000.3,N
1631362135.5,286047005.7,N
1631362155.3,286047007.3,N
1631362175.2,286047007.1,N
1631362195.0,286047007.4,N
1631362195.9,286047007.4,N
1631362215.8,286047006.2,N
1631362235.6,286047008.4,N
1631362255.4,286047007.5,N
1631362275.3,286047009.2,N
1631362295.1,286047010.7,N
1631362315.8,286047012.1,N
1631362335.7,286047012.2,N
1631362355.5,286047009.4,N
1631362375.4,286047006.7,N
1631362395.2,286047008.3,N
1631362415.0,286047007.6,N
1631362415.9,286047007.6,N
1631362435.8,286047007.3,N
1631362455.6,286047010.8,N
1631362475.4,286047010.5,N
1631362495.3,286047011.7,N
1631362515.1,286047009.3,N
1631362535.9,286047012.4,N
1631362555.7,286047010.8,N
1631362575.5,286047009.5,N
1631362595.4,286047012.3,N
1631362615.2,286047012.0,Y
1631362635.0,286047001.7,P
1631362635.9,286047001.7,N
1631362655.8,286047001.8,N
1631362675.6,286047006.0,N
1631362695.5,286047004.0,N
1631362715.3,286047003.6,N
1631362735.1,286047004.4,N
1631362755.9,286047002.0,N
1631362775.7,286046999.8,N
1631362795.6,286046999.7,N
1631362815.4,286047002.0,N
1631362835.2,286047002.5,N
1631362855.1,286047000.5,N
1631362856.0,286047000.5,N
1631362875.8,286046998.6,N
1631362895.6,286047000.8,N
1631362915.5,286047001.6,N
1631362935.3,286047002.7,N
1631362955.2,286047000.7,N
1631362975.9,286047000.5,N
1631362995.7,286046999.7,N
1631363015.6,286047000.6,N
1631363035.4,286047000.8,N
1631363055.2,286046998.1,N
1631363075.1,286047000.6,N
1631363076.0,286047000.6,N
1631363095.8,286046998.6,N
1631363115.7,286046998.4,N
1631363135.5,286046999.5,N
1631363155.3,286046996.8,N
1631363175.2,286046996.3,N
1631363195.0,286046996.2,N
1631363195.9,286046996.2,N
1631363215.8,286046996.8,N
1631363235.6,286046996.2,N
1631363255.5,286046996.4,N
1631363275.3,286046994.3,N
1631363295.1,286046991.8,Y
1631363315.9,286046995.0,P
1631363335.7,286046995.9,N
1631363355.6,286046996.1,N
1631363375.4,286046993.8,Y
1631363395.2,286046998.8,P
1631363415.1,286046996.7,N
1631363416.0,286046996.7,P
1631363435.8,286046993.6,Y
1631363455.7,286046997.4,P
1631363475.5,286046999.6,P
1631363495.3,286046999.7,N
1631363515.2,286046998.3,N
1631363535.0,286047000.7,N
1631363535.9,286047000.7,N
1631363555.7,286046996.5,N
1631363575.6,286047000.6,N
1631363595.4,286047001.2,N
1631363615.3,286046997.3,N
1631363635.1,286046996.8,N
1631363636.0,286046996.8,N
1631363655.8,286046996.7,N
1631363675.7,286046997.3,N
1631363695.5,286046996.0,N
1631363715.3,286046994.7,Y
1631363735.2,286046997.7,P
1631363755.0,286046996.7,P
1631363755.9,286046996.7,P
1631363775.8,286046997.2,Y
1631363795.6,286046996.8,P
1631363815.4,286046993.7,P
1631363835.3,286046996.2,N
1631363855.1,286046995.0,Y
1631363875.9,286046998.4,P
1631363895.7,286047001.9,N
1631363915.5,286047000.9,N
1631363935.4,286046999.9,N
1631363955.2,286046998.7,N
1631363975.0,286047000.1,N
1631363975.9,286047000.1,N
1631363995.8,286047004.3,N
1631364015.6,286047005.5,N
1631364035.5,286047003.6,N
1631364055.3,286047000.1,N
1631364075.1,286046998.7,N
1631364095.9,286046999.3,N
1631364115.7,286046997.5,N
1631364135.6,286046997.2,N
1631364155.4,286046998.1,N
1631364175.2,286047002.1,N
1631364195.1,286046998.5,N
1631364196.0,286046998.5,N
1631364215.8,286046998.6,N
1631364235.7,286047000.8,N
1631364255.5,286047000.5,N
1631364275.3,286047001.4,N
1631364295.2,286047003.8,N
1631364315.0,286047002.0,N
1631364315.9,286047002.0,N
1631364335.7,286047001.1,N
1631364355.6,286046999.5,N
1631364375.4,286046996.8,N
1631364395.3,286046996.3,N
1631364415.1,286046995.8,N
1631364416.0,286046995.8,N
1631364435.8,286046997.9,N
1631364455.7,286046997.2,N
1631364475.5,286046999.6,N
1631364495.3,286046997.3,N
1631364515.2,286046995.7,N
1631364535.0,286046994.7,N
1631364535.9,286046994.7,N
1631364555.8,286046990.1,Y
1631364575.6,286046990.7,P
1631364595.4,286046990.4,N
1631364615.3,286046991.1,N
1631364635.1,286046990.1,N
1631364655.9,286046992.4,N
1631364675.7,286046991.4,N
1631364695.5,286046990.0,Y
1631364715.4,286046993.8,P
1631364735.2,286046995.8,P
1631364755.0,286046993.3,P
1631364756.0,286046993.3,Y
1631364775.8,286047004.4,P
1631364795.6,286047001.7,N
1631364815.5,286047005.8,N
1631364835.3,286047003.4,N
1631364855.1,286047003.1,N
1631364875.9,286047005.6,N
1631364895.7,286047003.0,N
1631364915.6,286047004.9,N
1631364935.4,286047005.3,N
1631364955.2,286047003.4,N
1631364975.1,286047006.0,N
1631364976.0,286047006.0,N
1631364995.8,286047001.3,N
1631365015.7,286046998.9,N
1631365035.5,286046996.3,N
1631365055.3,286046993.8,N
1631365075.2,286046996.1,N
1631365095.0,286046996.6,N
1631365095.9,286046996.6,N
1631365115.8,286046998.7,N
1631365135.6,286046995.5,N
1631365155.4,286046991.6,N
1631365175.3,286046990.2,N
1631365195.1,286046991.0,N
